Time,TemperatureF,DewpointF,PressureIn,WindDirection,WindDirectionDegrees,WindSpeedMPH,WindSpeedGustMPH,Humidity,HourlyPrecipIn,Conditions,Clouds,dailyrainin,SoftwareType,DateUTC
2013-12-19 00:13:00,35.6,21.0,29.89,South,180,6.3,-999.0,55,-99.99,,,0.00,Acu-Link.com,2013-12-19 05:13:00,
2013-12-19 00:29:00,35.8,21.2,29.89,SSE,157,4.2,-999.0,55,-99.99,,,0.00,Acu-Link.com,2013-12-19 05:29:00,
2013-12-19 00:44:00,36.0,21.4,29.88,South,180,5.3,-999.0,55,-99.99,,,0.00,Acu-Link.com,2013-12-19 05:44:00,
2013-12-19 00:59:00,36.0,21.4,29.88,South,180,6.8,-999.0,55,-99.99,,,0.00,Acu-Link.com,2013-12-19 05:59:00,
2013-12-19 01:15:00,36.5,21.5,29.88,WSW,247,3.2,-999.0,54,-99.99,,,0.00,Acu-Link.com,2013-12-19 06:15:00,
2013-12-19 01:30:00,37.2,21.2,29.87,SSW,202,6.8,-999.0,52,-99.99,,,0.00,Acu-Link.com,2013-12-19 06:30:00,
2013-12-19 01:45:00,37.6,21.6,29.87,SSE,157,5.8,-999.0,52,-99.99,,,0.00,Acu-Link.com,2013-12-19 06:45:00,
2013-12-19 02:00:00,37.8,21.8,29.87,SW,225,6.8,-999.0,52,-99.99,,,0.00,Acu-Link.com,2013-12-19 07:00:00,
2013-12-19 02:16:00,37.9,21.9,29.88,South,180,4.7,-999.0,52,-99.99,,,0.00,Acu-Link.com,2013-12-19 07:16:00,
2013-12-19 02:31:00,38.1,21.6,29.88,SW,225,4.7,-999.0,51,-99.99,,,0.00,Acu-Link.com,2013-12-19 07:31:00,
2013-12-19 02:46:00,38.1,22.1,29.88,ESE,112,4.7,-999.0,52,-99.99,,,0.00,Acu-Link.com,2013-12-19 07:46:00,
2013-12-19 03:01:00,38.3,21.8,29.88,WSW,247,5.8,-999.0,51,-99.99,,,0.00,Acu-Link.com,2013-12-19 08:01:00,
2013-12-19 03:16:00,38.8,21.8,29.89,South,180,5.8,-999.0,50,-99.99,,,0.00,Acu-Link.com,2013-12-19 08:16:00,
2013-12-19 03:32:00,38.8,21.8,29.89,SSE,157,3.7,-999.0,50,-99.99,,,0.00,Acu-Link.com,2013-12-19 08:32:00,
2013-12-19 03:47:00,39.2,21.7,29.89,SW,225,2.7,-999.0,49,-99.99,,,0.00,Acu-Link.com,2013-12-19 08:47:00,
2013-12-19 04:02:00,39.2,21.7,29.89,South,180,4.7,-999.0,49,-99.99,,,0.00,Acu-Link.com,2013-12-19 09:02:00,
2013-12-19 04:17:00,39.2,22.1,29.89,SW,225,3.2,-999.0,50,-99.99,,,0.00,Acu-Link.com,2013-12-19 09:17:00,
2013-12-19 04:32:00,39.0,22.0,29.89,South,180,3.7,-999.0,50,-99.99,,,0.00,Acu-Link.com,2013-12-19 09:32:00,
2013-12-19 04:48:00,38.5,22.0,29.90,SW,225,4.2,-999.0,51,-99.99,,,0.00,Acu-Link.com,2013-12-19 09:48:00,
2013-12-19 05:03:00,38.3,22.2,29.90,West,270,2.7,-999.0,52,-99.99,,,0.00,Acu-Link.com,2013-12-19 10:03:00,
2013-12-19 05:18:00,37.6,22.0,29.91,SSE,157,3.7,-999.0,53,-99.99,,,0.00,Acu-Link.com,2013-12-19 10:18:00,
2013-12-19 05:33:00,37.0,21.5,29.92,South,180,2.7,-999.0,53,-99.99,,,0.00,Acu-Link.com,2013-12-19 10:33:00,
2013-12-19 05:48:00,35.6,21.5,29.92,SSW,202,1.7,-999.0,56,-99.99,,,0.00,Acu-Link.com,2013-12-19 10:48:00,
2013-12-19 06:04:00,34.5,21.3,29.92,WSW,247,0.0,-999.0,58,-99.99,,,0.00,Acu-Link.com,2013-12-19 11:04:00,
2013-12-19 06:19:00,33.8,21.4,29.92,South,180,0.0,-999.0,60,-99.99,,,0.00,Acu-Link.com,2013-12-19 11:19:00,
2013-12-19 06:35:00,33.8,21.4,29.93,SSW,202,2.2,-999.0,60,-99.99,,,0.00,Acu-Link.com,2013-12-19 11:35:00,
2013-12-19 06:50:00,34.2,21.8,29.93,SSE,157,2.2,-999.0,60,-99.99,,,0.00,Acu-Link.com,2013-12-19 11:50:00,
2013-12-19 07:05:00,34.3,21.9,29.93,South,180,2.7,-999.0,60,-99.99,,,0.00,Acu-Link.com,2013-12-19 12:05:00,
2013-12-19 07:20:00,34.3,21.5,29.93,South,180,2.2,-999.0,59,-99.99,,,0.00,Acu-Link.com,2013-12-19 12:20:00,
2013-12-19 07:36:00,34.2,21.8,29.93,South,180,0.0,-999.0,60,-99.99,,,0.00,Acu-Link.com,2013-12-19 12:36:00,
2013-12-19 07:51:00,34.5,21.7,29.93,SSE,157,1.7,-999.0,59,-99.99,,,0.00,Acu-Link.com,2013-12-19 12:51:00,
2013-12-19 08:06:00,35.1,21.8,29.93,SSW,202,1.7,-999.0,58,-99.99,,,0.00,Acu-Link.com,2013-12-19 13:06:00,
2013-12-19 08:22:00,36.9,22.3,29.93,SSW,202,2.7,-999.0,55,-99.99,,,0.00,Acu-Link.com,2013-12-19 13:22:00,
2013-12-19 08:37:00,39.2,22.6,29.93,South,180,5.3,-999.0,51,-99.99,,,0.00,Acu-Link.com,2013-12-19 13:37:00,
2013-12-19 08:52:00,41.9,23.7,29.94,SSW,202,5.3,-999.0,48,-99.99,,,0.00,Acu-Link.com,2013-12-19 13:52:00,
2013-12-19 09:08:00,43.0,24.2,29.94,ESE,112,4.2,-999.0,47,-99.99,,,0.00,Acu-Link.com,2013-12-19 14:08:00,
2013-12-19 09:23:00,44.1,24.7,29.94,SW,225,5.3,-999.0,46,-99.99,,,0.00,Acu-Link.com,2013-12-19 14:23:00,
2013-12-19 09:38:00,45.9,25.2,29.94,South,180,3.2,-999.0,44,-99.99,,,0.00,Acu-Link.com,2013-12-19 14:38:00,
2013-12-19 09:54:00,48.0,27.1,29.94,SSE,157,6.3,-999.0,44,-99.99,,,0.00,Acu-Link.com,2013-12-19 14:54:00,
2013-12-19 10:09:00,49.3,28.3,29.94,SW,225,9.9,-999.0,44,-99.99,,,0.00,Acu-Link.com,2013-12-19 15:09:00,
2013-12-19 10:24:00,50.4,29.9,29.95,WSW,247,4.7,-999.0,45,-99.99,,,0.00,Acu-Link.com,2013-12-19 15:24:00,
2013-12-19 10:39:00,50.9,31.4,29.94,West,270,6.3,-999.0,47,-99.99,,,0.00,Acu-Link.com,2013-12-19 15:39:00,
2013-12-19 10:54:00,52.2,33.6,29.95,SW,225,4.7,-999.0,49,-99.99,,,0.00,Acu-Link.com,2013-12-19 15:54:00,
2013-12-19 11:09:00,52.5,33.9,29.95,SW,225,8.3,-999.0,49,-99.99,,,0.00,Acu-Link.com,2013-12-19 16:09:00,
2013-12-19 11:24:00,53.2,34.5,29.94,SW,225,8.9,-999.0,49,-99.99,,,0.00,Acu-Link.com,2013-12-19 16:24:00,
2013-12-19 11:39:00,54.1,35.9,29.94,WSW,247,6.8,-999.0,50,-99.99,,,0.00,Acu-Link.com,2013-12-19 16:39:00,
2013-12-19 11:55:00,54.3,36.6,29.93,WNW,292,5.3,-999.0,51,-99.99,,,0.00,Acu-Link.com,2013-12-19 16:55:00,
2013-12-19 12:10:00,54.5,37.7,29.92,WSW,247,8.9,-999.0,53,-99.99,,,0.00,Acu-Link.com,2013-12-19 17:10:00,
2013-12-19 12:25:00,56.8,38.9,29.91,SW,225,12.5,-999.0,51,-99.99,,,0.00,Acu-Link.com,2013-12-19 17:25:00,
2013-12-19 12:40:00,55.9,38.5,29.90,SW,225,9.4,-999.0,52,-99.99,,,0.00,Acu-Link.com,2013-12-19 17:40:00,
2013-12-19 12:55:00,55.4,38.1,29.89,SSE,157,4.7,-999.0,52,-99.99,,,0.00,Acu-Link.com,2013-12-19 17:55:00,
2013-12-19 13:11:00,56.1,37.2,29.88,WSW,247,7.3,-999.0,49,-99.99,,,0.00,Acu-Link.com,2013-12-19 18:11:00,
2013-12-19 13:26:00,57.4,36.8,29.88,SSW,202,6.8,-999.0,46,-99.99,,,0.00,Acu-Link.com,2013-12-19 18:26:00,
2013-12-19 13:41:00,57.2,37.2,29.87,West,270,10.4,-999.0,47,-99.99,,,0.00,Acu-Link.com,2013-12-19 18:41:00,
2013-12-19 13:56:00,57.6,38.1,29.87,South,180,6.3,-999.0,48,-99.99,,,0.00,Acu-Link.com,2013-12-19 18:56:00,
2013-12-19 14:11:00,57.2,38.2,29.87,SW,225,5.3,-999.0,49,-99.99,,,0.00,Acu-Link.com,2013-12-19 19:11:00,
2013-12-19 14:26:00,57.7,38.7,29.86,SSW,202,6.8,-999.0,49,-99.99,,,0.00,Acu-Link.com,2013-12-19 19:26:00,
2013-12-19 14:42:00,57.4,38.4,29.86,ESE,112,6.8,-999.0,49,-99.99,,,0.00,Acu-Link.com,2013-12-19 19:42:00,
2013-12-19 14:57:00,57.4,37.9,29.86,SSE,157,6.3,-999.0,48,-99.99,,,0.00,Acu-Link.com,2013-12-19 19:57:00,
2013-12-19 15:12:00,57.6,37.5,29.86,SSW,202,4.7,-999.0,47,-99.99,,,0.00,Acu-Link.com,2013-12-19 20:12:00,
2013-12-19 15:27:00,58.3,35.9,29.85,South,180,7.3,-999.0,43,-99.99,,,0.00,Acu-Link.com,2013-12-19 20:27:00,
2013-12-19 15:42:00,58.3,35.9,29.84,SW,225,12.5,-999.0,43,-99.99,,,0.00,Acu-Link.com,2013-12-19 20:42:00,
2013-12-19 15:57:00,58.5,35.5,29.85,ESE,112,3.2,-999.0,42,-99.99,,,0.00,Acu-Link.com,2013-12-19 20:57:00,
2013-12-19 16:12:00,57.9,34.3,29.85,South,180,6.3,-999.0,41,-99.99,,,0.00,Acu-Link.com,2013-12-19 21:12:00,
2013-12-19 16:27:00,57.9,34.3,29.85,SSW,202,4.7,-999.0,41,-99.99,,,0.00,Acu-Link.com,2013-12-19 21:27:00,
2013-12-19 16:43:00,56.1,33.3,29.84,West,270,4.2,-999.0,42,-99.99,,,0.00,Acu-Link.com,2013-12-19 21:43:00,
2013-12-19 16:58:00,55.4,32.7,29.84,WSW,247,5.3,-999.0,42,-99.99,,,0.00,Acu-Link.com,2013-12-19 21:58:00,
2013-12-19 17:13:00,53.8,32.4,29.84,SSW,202,3.7,-999.0,44,-99.99,,,0.00,Acu-Link.com,2013-12-19 22:13:00,
2013-12-19 17:28:00,53.1,32.3,29.84,SSE,157,2.7,-999.0,45,-99.99,,,0.00,Acu-Link.com,2013-12-19 22:28:00,
2013-12-19 17:43:00,51.6,32.0,29.84,South,180,2.2,-999.0,47,-99.99,,,0.00,Acu-Link.com,2013-12-19 22:43:00,
2013-12-19 17:59:00,51.3,32.3,29.84,SSW,202,2.2,-999.0,48,-99.99,,,0.00,Acu-Link.com,2013-12-19 22:59:00,
2013-12-19 18:29:00,50.9,31.9,29.84,South,180,3.2,-999.0,48,-99.99,,,0.00,Acu-Link.com,2013-12-19 23:29:00,
2013-12-19 18:45:00,50.0,32.1,29.83,South,180,1.7,-999.0,50,-99.99,,,0.00,Acu-Link.com,2013-12-19 23:45:00,
2013-12-19 19:00:00,49.1,32.2,29.83,SSW,202,1.7,-999.0,52,-99.99,,,0.00,Acu-Link.com,2013-12-20 00:00:00,
2013-12-19 19:15:00,47.5,31.7,29.84,SSW,202,0.0,-999.0,54,-99.99,,,0.00,Acu-Link.com,2013-12-20 00:15:00,
2013-12-19 19:30:00,47.3,31.5,29.83,South,180,0.0,-999.0,54,-99.99,,,0.00,Acu-Link.com,2013-12-20 00:30:00,
2013-12-19 19:45:00,48.0,31.2,29.82,SSE,157,2.2,-999.0,52,-99.99,,,0.00,Acu-Link.com,2013-12-20 00:45:00,
2013-12-19 20:01:00,48.9,31.1,29.83,SW,225,1.7,-999.0,50,-99.99,,,0.00,Acu-Link.com,2013-12-20 01:01:00,
2013-12-19 20:16:00,49.6,30.2,29.82,SSW,202,2.7,-999.0,47,-99.99,,,0.00,Acu-Link.com,2013-12-20 01:16:00,
2013-12-19 20:31:00,50.0,30.0,29.81,SSW,202,1.7,-999.0,46,-99.99,,,0.00,Acu-Link.com,2013-12-20 01:31:00,
2013-12-19 20:46:00,49.8,30.4,29.82,SSW,202,2.7,-999.0,47,-99.99,,,0.00,Acu-Link.com,2013-12-20 01:46:00,
2013-12-19 21:01:00,50.0,30.6,29.81,SE,135,4.2,-999.0,47,-99.99,,,0.00,Acu-Link.com,2013-12-20 02:01:00,
2013-12-19 21:17:00,50.5,30.0,29.80,SSE,157,2.7,-999.0,45,-99.99,,,0.00,Acu-Link.com,2013-12-20 02:17:00,
2013-12-19 21:32:00,50.7,30.1,29.80,SSW,202,2.7,-999.0,45,-99.99,,,0.00,Acu-Link.com,2013-12-20 02:32:00,
2013-12-19 21:47:00,50.9,29.8,29.81,ENE,67,5.8,-999.0,44,-99.99,,,0.00,Acu-Link.com,2013-12-20 02:47:00,
2013-12-19 22:02:00,50.5,30.0,29.80,SSW,202,4.2,-999.0,45,-99.99,,,0.00,Acu-Link.com,2013-12-20 03:02:00,
2013-12-19 22:18:00,50.5,30.0,29.81,South,180,3.7,-999.0,45,-99.99,,,0.00,Acu-Link.com,2013-12-20 03:18:00,
2013-12-19 22:33:00,50.5,30.0,29.81,South,180,8.3,-999.0,45,-99.99,,,0.00,Acu-Link.com,2013-12-20 03:33:00,
2013-12-19 22:48:00,50.5,30.0,29.81,SSE,157,4.2,-999.0,45,-99.99,,,0.00,Acu-Link.com,2013-12-20 03:48:00,
2013-12-19 23:03:00,50.5,30.0,29.80,WSW,247,3.7,-999.0,45,-99.99,,,0.00,Acu-Link.com,2013-12-20 04:03:00,
2013-12-19 23:18:00,50.5,30.0,29.81,SSE,157,5.3,-999.0,45,-99.99,,,0.00,Acu-Link.com,2013-12-20 04:18:00,
2013-12-19 23:33:00,50.5,30.0,29.81,SW,225,6.3,-999.0,45,-99.99,,,0.00,Acu-Link.com,2013-12-20 04:33:00,
2013-12-19 23:48:00,50.2,30.2,29.81,SSE,157,5.3,-999.0,46,-99.99,,,0.00,Acu-Link.com,2013-12-20 04:48:00,